Temperature
-7 -6 -6 -6 -6 -7 -7 -7 -6 -6 -6 -5 -6 -6 -5 -5 -5 -5 -5 -5 -4 -4 -4 -4 -3 -3 -2 -2 -2 -1 -1 -1 -0 0 1 1 1 2 2 3 3 3 4 4
-7 -6 -6 -6 -6 -6 -6 -7 -7 -6 -6 -6 -6 -6 -6 -5 -6 -6 -6 -5 -5 -5 -5 -4 -4 -4 -3 -3 -2 -2 -2 -1 -1 -1 -0 0 0 1 1 2 2 3 3 3
-6 -7 -7 -6 -6 -7 -7 -7 -7 -6 -6 -6 -7 -6 -6 -6 -6 -6 -6 -6 -6 -5 -5 -5 -5 -4 -4 -3 -3 -3 -2 -2 -2 -1 -1 -1 -0 0 1 1 2 2 2 3
-7 -7 -6 -5 -7 -7 -7 -7 -8 -7 -7 -7 -6 -6 -6 -6 -6 -6 -6 -6 -6 -6 -5 -5 -5 -5 -4 -4 -4 -3 -3 -3 -2 -2 -2 -1 -1 -1 -0 0 1 1 2 2
-8 -8 -7 -6 -7 -8 -8 -7 -7 -8 -7 -7 -6 -7 -6 -6 -6 -6 -6 -7 -6 -6 -6 -6 -5 -5 -5 -4 -4 -4 -4 -3 -3 -3 -2 -2 -2 -1 -1 -1 -0 0 1 1
-9 -7 -6 -5 -7 -7 -7 -7 -7 -7 -7 -7 -8 -8 -7 -6 -6 -7 -7 -7 -7 -6 -6 -6 -6 -6 -5 -5 -5 -5 -4 -4 -4 -3 -3 -3 -2 -2 -2 -1 -1 -1 -0 1
-9 -9 -7 -7 -8 -7 -7 -6 -6 -6 -6 -7 -8 -7 -6 -7 -7 -7 -7 -7 -7 -7 -7 -6 -6 -6 -6 -6 -5 -5 -5 -5 -4 -4 -4 -3 -3 -3 -2 -2 -2 -1 -1 -0
-10 -9 -7 -7 -8 -8 -7 -6 -5 -6 -6 -7 -7 -7 -7 -7 -7 -7 -8 -7 -7 -7 -7 -7 -7 -7 -7 -6 -6 -6 -5 -5 -5 -4 -4 -4 -4 -3 -3 -2 -2 -2 -1 -1
-9 -7 -7 -7 -7 -6 -6 -6 -6 -6 -6 -7 -7 -7 -8 -8 -8 -8 -8 -8 -8 -8 -7 -7 -7 -7 -7 -7 -6 -6 -6 -5 -5 -5 -5 -5 -4 -4 -3 -3 -3 -3 -2 -2
-10 -9 -8 -7 -6 -6 -6 -6 -6 -7 -7 -7 -8 -8 -8 -8 -8 -8 -8 -8 -8 -8 -8 -8 -7 -8 -7 -7 -7 -7 -6 -6 -6 -5 -5 -5 -5 -5 -4 -4 -4 -3 -3 -3
-10 -10 -8 -6 -6 -6 -6 -6 -7 -7 -7 -8 -8 -8 -8 -9 -9 -9 -9 -8 -8 -8 -8 -8 -8 -8 -8 -7 -7 -7 -7 -7 -6 -6 -6 -6 -6 -5 -5 -5 -4 -4 -4 -3
-8 -7 -8 -6 -6 -6 -7 -7 -7 -7 -7 -8 -8 -9 -9 -9 -9 -9 -9 -9 -9 -9 -8 -8 -8 -8 -8 -8 -8 -8 -7 -7 -7 -7 -7 -6 -6 -6 -5 -5 -5 -4 -4 -4
-6 -6 -7 -7 -7 -7 -7 -7 -8 -8 -8 -8 -8 -9 -9 -9 -9 -9 -9 -9 -9 -9 -9 -8 -8 -8 -8 -8 -8 -8 -8 -8 -8 -8 -7 -7 -7 -7 -6 -5 -5 -5 -4 -4
-7 -7 -8 -7 -7 -7 -8 -8 -8 -8 -8 -9 -9 -9 -9 -9 -9 -9 -9 -9 -9 -9 -9 -9 -8 -8 -8 -8 -8 -8 -8 -8 -8 -8 -8 -8 -7 -7 -7 -6 -6 -5 -5 -5
-7 -8 -8 -8 -8 -8 -8 -8 -8 -8 -8 -9 -9 -9 -9 -9 -9 -9 -9 -9 -9 -9 -9 -9 -9 -9 -9 -9 -9 -9 -9 -9 -8 -8 -8 -8 -8 -8 -7 -7 -7 -6 -6 -5
-8 -8 -8 -8 -8 -8 -8 -9 -9 -9 -9 -9 -9 -9 -9 -10 -10 -10 -9 -9 -9 -9 -9 -9 -9 -9 -9 -9 -9 -9 -9 -9 -9 -9 -9 -9 -9 -8 -8 -8 -7 -7 -7 -6
-8 -8 -8 -9 -9 -9 -9 -9 -9 -9 -9 -9 -9 -10 -10 -10 -10 -10 -10 -10 -10 -10 -10 -10 -10 -10 -9 -9 -9 -9 -9 -9 -9 -9 -9 -9 -9 -9 -9 -8 -8 -8 -7 -7
-8 -8 -8 -9 -9 -9 -9 -9 -9 -9 -10 -10 -10 -10 -10 -10 -10 -10 -10 -10 -10 -10 -10 -10 -10 -10 -10 -10 -10 -10 -10 -9 -9 -9 -9 -9 -9 -9 -9 -9 -9 -8 -8 -7
-8 -9 -9 -9 -9 -9 -9 -9 -10 -10 -10 -10 -10 -10 -10 -11 -11 -11 -11 -10 -10 -10 -10 -10 -10 -10 -10 -10 -10 -10 -10 -10 -10 -10 -10 -10 -10 -9 -9 -9 -9 -9 -8 -8
-9 -9 -9 -9 -9 -9 -10 -10 -10 -10 -10 -10 -10 -10 -11 -11 -11 -11 -11 -11 -11 -11 -11 -11 -11 -11 -10 -11 -10 -10 -10 -10 -10 -10 -10 -10 -10 -10 -10 -10 -9 -9 -9 -8
-9 -9 -9 -9 -10 -10 -10 -10 -10 -10 -10 -11 -11 -11 -11 -11 -11 -11 -11 -11 -11 -11 -11 -11 -11 -11 -11 -11 -11 -11 -11 -11 -11 -11 -11 -11 -10 -10 -10 -10 -10 -9 -9 -9
-9 -9 -10 -10 -10 -10 -10 -10 -11 -11 -11 -11 -11 -11 -11 -11 -11 -12 -12 -12 -12 -12 -12 -12 -12 -12 -12 -11 -11 -11 -11 -11 -11 -11 -11 -11 -11 -11 -10 -10 -10 -10 -10 -9
-10 -10 -10 -10 -10 -10 -11 -11 -11 -11 -11 -11 -11 -12 -12 -12 -12 -12 -12 -12 -12 -12 -12 -12 -12 -12 -12 -12 -12 -12 -12 -12 -12 -12 -12 -12 -11 -11 -11 -10 -10 -10 -10 -10
-10 -10 -10 -11 -11 -11 -11 -11 -11 -11 -11 -12 -12 -12 -12 -12 -12 -12 -12 -12 -12 -12 -12 -12 -12 -12 -12 -12 -12 -12 -12 -12 -12 -12 -12 -12 -11 -11 -11 -11 -10 -10 -10 -10
-10 -10 -11 -11 -11 -11 -11 -11 -11 -11 -12 -12 -12 -12 -12 -12 -12 -12 -12 -12 -12 -12 -12 -12 -12 -12 -12 -12 -12 -12 -12 -12 -12 -12 -12 -12 -12 -11 -11 -11 -11 -11 -11 -10
-10 -11 -11 -11 -11 -11 -12 -12 -12 -12 -12 -12 -12 -12 -12 -12 -12 -12 -12 -12 -12 -12 -12 -12 -12 -12 -12 -13 -13 -13 -13 -12 -12 -12 -12 -12 -12 -12 -12 -12 -11 -11 -11 -11
-11 -11 -11 -11 -11 -12 -12 -12 -12 -12 -12 -12 -12 -12 -13 -13 -13 -13 -12 -12 -12 -12 -13 -13 -13 -13 -13 -13 -13 -13 -13 -13 -13 -13 -13 -12 -12 -12 -12 -12 -11 -11 -11 -11
Wind_Speed
6 6 4 6 6 4 5 6 7 8 8 11 8 7 8 8 8 8 9 9 9 8 8 8 8 8 8 7 7 6 5 6 6 5 5 4 4 4 3 4 3 3 3 3
4 4 5 8 9 8 8 7 8 9 11 9 6 4 6 7 8 9 9 10 9 9 9 9 9 9 9 9 8 6 6 6 6 5 4 4 4 3 3 4 3 2 3 3
4 4 5 8 7 7 5 5 6 8 9 5 5 6 6 7 7 8 9 9 9 9 8 8 8 8 8 9 8 7 6 6 6 6 4 4 4 3 4 4 3 2 3 3
2 4 5 7 1 4 6 7 7 7 7 5 6 6 6 5 6 7 8 9 9 9 9 8 8 8 8 8 7 7 7 7 7 6 5 4 4 4 5 4 3 3 3 3
1 3 8 7 2 3 4 7 6 8 8 6 5 6 6 4 3 5 7 7 8 8 8 8 9 8 8 8 7 8 8 8 8 6 5 4 4 4 5 4 4 4 4 3
2 2 6 6 2 1 2 6 4 4 6 4 2 4 6 4 4 6 7 7 7 7 8 8 9 8 7 8 8 8 8 9 8 7 6 5 5 5 4 4 4 4 4 3
4 5 9 6 1 3 2 6 3 3 5 3 4 6 6 6 6 6 7 7 7 7 7 7 8 7 7 8 8 9 8 8 8 7 6 5 5 4 4 4 4 3 3 3
5 4 9 3 5 6 7 3 2 3 4 4 5 7 7 7 7 8 8 8 8 7 8 7 7 6 7 8 9 9 8 8 8 8 6 5 5 4 3 3 3 3 3 3
9 9 4 5 6 5 2 3 4 3 4 4 5 6 7 7 7 7 8 8 7 7 8 8 6 6 7 9 9 8 8 8 8 8 6 5 4 4 3 2 2 2 2 3
6 9 7 7 7 5 4 5 5 4 4 4 5 6 7 7 7 7 7 7 7 7 7 8 7 7 7 8 8 7 8 8 7 6 6 5 4 3 2 2 2 2 3 3
7 8 7 6 6 6 5 5 5 5 4 4 5 6 6 6 6 6 7 7 6 7 7 8 8 8 8 8 7 7 7 7 6 6 5 4 4 3 3 2 3 3 3 3
8 6 5 5 4 3 4 4 4 4 4 4 4 5 5 6 6 6 7 7 7 7 8 8 7 8 8 7 7 6 6 6 5 5 4 4 4 5 6 5 6 5 4 3
5 2 4 5 4 3 3 4 4 4 4 5 4 4 5 5 6 6 6 7 7 7 7 7 7 8 8 7 7 6 6 6 5 5 4 4 4 4 5 6 6 6 4 4
3 1 3 3 3 3 3 4 3 4 4 4 4 4 4 5 5 6 7 7 7 7 7 7 7 8 8 7 7 6 6 6 5 4 4 4 4 4 3 3 4 4 4 4
4 4 4 4 4 3 3 2 3 4 4 4 3 4 4 5 6 7 7 7 6 6 6 7 7 8 8 7 7 6 5 4 4 4 4 3 3 3 3 3 3 3 3 3
3 2 3 3 4 4 3 3 4 5 5 5 4 5 5 5 6 6 6 5 5 6 7 7 7 8 7 7 7 5 5 7 6 4 3 3 3 3 3 2 2 3 3 3
2 3 3 4 5 5 4 5 5 6 5 5 5 5 5 5 5 6 6 5 4 6 6 7 7 8 7 6 5 5 4 5 7 4 3 3 3 3 3 2 2 2 2 3
5 5 5 5 5 5 6 5 5 5 5 5 5 4 4 4 5 6 6 5 5 6 7 6 6 7 6 5 5 4 4 4 4 3 3 3 3 3 2 2 3 3 2 2
4 4 4 4 4 4 5 5 5 4 4 4 4 4 5 5 5 5 5 5 6 7 7 7 9 7 6 6 6 3 4 4 4 4 3 4 4 3 3 2 3 3 2 2
3 3 3 4 3 3 4 4 4 4 4 3 3 4 5 5 5 5 5 5 5 5 7 8 7 6 6 6 6 3 3 4 3 3 3 3 3 3 3 3 3 3 2 2
3 3 3 3 3 3 3 3 3 4 4 3 3 5 5 5 4 4 4 6 6 6 6 8 6 5 5 6 6 3 3 3 3 3 3 3 3 3 3 3 3 3 2 2
3 3 3 3 3 4 4 3 3 4 4 4 4 4 4 5 5 5 5 5 6 8 6 5 5 6 7 7 3 3 3 3 3 3 3 3 3 3 3 3 2 2 2 2
3 3 3 3 3 4 4 3 3 3 4 4 4 4 4 5 4 4 6 5 5 8 6 5 7 9 9 5 3 3 3 3 3 3 3 3 3 3 3 3 2 2 2 2
2 2 3 2 2 2 4 4 4 3 4 4 4 4 4 4 4 4 5 8 9 8 5 7 10 10 8 4 3 3 3 3 3 3 3 3 3 3 3 3 2 2 2 3
2 2 2 2 2 3 4 4 4 4 3 3 4 4 3 3 4 5 5 6 8 8 5 8 10 10 6 4 4 4 4 4 4 3 3 3 3 3 3 3 3 3 3 3
2 2 2 3 3 3 3 3 3 3 3 4 4 4 4 3 4 4 4 5 6 7 5 5 6 6 4 4 4 4 4 5 5 4 3 3 4 3 3 3 4 3 3 4
2 2 2 2 2 2 2 2 3 3 3 4 4 4 4 4 4 4 4 4 4 4 4 5 4 4 4 4 4 4 4 4 4 4 4 4 4 4 4 4 4 4 4 4
Wind_Direction
254 260 265 265 270 247 222 222 226 253 261 279 294 296 301 310 320 328 333 335 334 331 329 332 336 337 334 329 329 328 326 319 310 308 309 309 306 302 295 290 270 257 253 253
281 266 271 281 271 249 244 245 246 265 274 275 287 297 308 314 323 326 327 329 329 330 331 331 333 332 332 328 325 322 317 310 307 305 306 305 303 300 300 292 280 263 253 246
281 313 321 285 254 220 225 226 216 239 258 290 301 304 305 310 315 313 317 321 325 325 322 322 323 324 324 320 321 322 314 311 314 307 299 299 300 300 294 283 280 274 264 250
297 4 267 255 204 200 231 255 238 254 272 277 274 289 291 288 292 302 314 319 321 321 321 323 323 323 321 322 326 325 322 320 315 309 299 298 298 294 293 282 268 262 261 253
190 279 280 290 255 184 210 274 243 245 270 287 305 314 305 294 290 296 306 309 311 313 315 321 324 327 327 328 331 331 329 323 319 314 305 298 291 284 281 275 271 263 258 249
164 228 259 264 255 190 120 290 262 224 259 282 338 313 297 310 315 312 313 315 317 320 323 324 324 330 332 329 332 329 324 320 317 314 304 292 283 281 278 269 265 269 268 256
205 235 266 262 220 124 163 262 281 224 248 249 238 251 282 308 311 311 313 317 321 322 322 319 324 333 330 328 323 318 318 319 320 318 310 296 294 281 265 263 264 265 269 272
178 214 258 213 142 188 227 263 251 247 250 251 262 282 294 305 312 319 321 323 326 325 321 321 328 331 326 321 317 320 323 323 323 323 319 316 308 293 270 253 255 261 269 285
197 219 253 191 212 240 249 257 260 253 262 260 275 285 295 302 308 312 315 318 322 321 320 324 329 328 319 315 320 324 326 324 323 325 326 327 318 304 287 258 244 253 255 266
250 263 260 251 258 267 255 256 268 266 272 269 271 281 292 301 307 312 314 317 319 322 322 321 324 324 315 314 321 324 323 322 322 327 331 336 331 322 309 273 252 251 251 253
253 275 297 275 245 254 261 268 279 284 277 270 271 284 288 295 300 305 310 314 316 316 314 312 317 319 319 320 322 323 321 321 325 326 327 331 334 330 321 307 265 256 253 249
236 235 223 264 280 268 257 267 273 282 295 291 271 277 288 292 295 301 307 313 316 317 317 315 317 317 319 320 321 321 324 326 324 324 326 330 332 334 340 331 328 314 298 276
237 240 232 270 292 279 258 265 271 268 270 286 287 278 284 292 296 301 307 312 312 313 314 315 319 319 321 323 324 323 317 316 317 323 326 330 331 331 331 336 342 342 340 332
236 240 270 264 275 291 282 284 287 287 281 275 283 290 290 294 299 301 302 304 306 310 314 316 320 321 322 323 325 323 316 315 319 317 318 319 322 324 325 328 332 337 351 358
237 220 239 270 292 302 302 303 303 297 295 296 295 294 294 294 296 299 302 307 312 316 319 322 322 320 323 325 327 324 323 324 321 320 320 319 321 325 327 329 331 332 341 357
263 259 257 271 283 293 301 294 287 286 289 293 295 295 293 292 295 301 306 309 312 314 316 317 314 316 321 325 328 328 330 333 334 329 329 329 329 329 331 333 335 337 339 338
233 264 272 281 282 285 279 273 271 276 283 284 285 291 299 304 308 309 311 312 304 301 304 306 309 314 321 326 328 329 328 329 336 336 335 331 328 329 327 327 327 326 322 330
231 239 242 250 261 274 282 282 279 278 277 280 289 294 295 296 298 303 310 318 320 316 311 309 312 318 323 327 328 326 327 327 330 331 331 330 328 327 328 329 325 320 322 339
251 252 255 256 258 260 269 277 282 282 284 290 291 288 288 291 295 303 311 318 319 316 317 320 326 330 325 326 333 327 328 329 331 332 331 332 336 336 332 327 321 323 330 338
276 277 276 279 281 275 280 287 290 293 292 293 295 297 301 302 305 308 310 303 296 294 304 316 321 320 319 323 330 327 323 322 323 326 330 332 331 330 329 328 326 328 334 337
287 287 284 285 290 289 280 281 285 288 293 292 286 287 293 300 304 306 309 306 307 309 312 318 324 318 320 325 326 322 316 315 316 318 321 324 324 324 322 319 320 325 328 331
276 277 279 284 289 295 296 293 286 286 294 297 294 294 299 304 307 305 293 286 301 315 323 318 315 319 329 331 331 327 320 318 315 315 317 318 318 318 317 314 316 321 323 323
273 274 277 278 278 288 301 300 290 286 288 292 293 293 291 291 294 297 302 307 310 314 323 317 318 325 332 342 340 330 326 323 319 315 315 316 316 316 315 315 312 312 313 314
276 284 288 292 294 299 301 302 299 294 288 290 289 286 288 296 299 288 287 305 316 316 319 320 325 329 337 349 337 328 323 320 317 317 317 317 317 316 313 310 306 308 308 310
271 278 288 295 293 288 289 301 309 307 304 305 304 301 292 280 282 296 302 306 314 321 321 321 327 333 344 336 329 324 320 312 308 312 312 313 312 311 309 306 304 304 304 301
265 269 270 267 267 276 286 294 300 303 307 309 311 308 305 304 299 302 306 308 310 317 321 319 323 328 329 323 319 316 313 314 320 321 315 309 306 305 304 303 302 298 295 292
284 283 287 295 293 283 282 284 287 293 295 295 299 305 308 312 312 311 310 312 313 315 315 315 318 318 317 315 314 312 309 307 307 306 305 304 301 300 302 299 293 289 288 287
Height
1543 1540 1539 1537 1535 1535 1535 1533 1532 1525 1521 1511 1509 1508 1505 1502 1499 1496 1492 1490 1487 1485 1483 1481 1478 1476 1474 1473 1472 1471 1470 1470 1469 1469 1469 1470 1470 1471 1472 1474 1475 1477 1479 1481
1541 1537 1536 1533 1529 1529 1529 1529 1527 1522 1517 1508 1507 1506 1503 1501 1498 1495 1492 1489 1487 1484 1482 1479 1477 1474 1472 1470 1469 1468 1467 1467 1466 1466 1466 1466 1467 1468 1469 1469 1470 1471 1474 1476
1541 1539 1535 1529 1523 1524 1524 1521 1521 1518 1512 1507 1506 1504 1502 1500 1497 1494 1492 1489 1486 1483 1481 1478 1475 1473 1470 1468 1467 1466 1464 1463 1463 1462 1462 1462 1462 1463 1464 1465 1466 1467 1469 1471
1544 1543 1536 1520 1518 1518 1518 1516 1515 1512 1508 1506 1504 1502 1500 1498 1496 1493 1491 1487 1484 1481 1479 1476 1474 1471 1469 1467 1465 1463 1461 1460 1459 1459 1458 1458 1458 1459 1460 1461 1461 1463 1464 1466
1546 1546 1533 1518 1516 1517 1518 1513 1508 1508 1505 1504 1502 1500 1497 1496 1494 1492 1489 1486 1483 1480 1477 1474 1471 1469 1466 1464 1462 1460 1458 1457 1456 1455 1454 1454 1454 1455 1456 1456 1457 1459 1460 1461
1548 1543 1531 1516 1514 1513 1516 1513 1504 1504 1503 1502 1502 1502 1496 1494 1492 1489 1487 1484 1481 1477 1474 1471 1469 1466 1463 1461 1459 1457 1455 1454 1453 1452 1451 1450 1450 1450 1451 1452 1453 1454 1455 1457
1546 1543 1527 1514 1512 1513 1518 1510 1503 1501 1501 1501 1500 1499 1495 1492 1489 1486 1483 1481 1478 1475 1472 1469 1466 1464 1461 1459 1457 1455 1454 1452 1450 1448 1447 1447 1446 1446 1447 1448 1448 1449 1450 1452
1543 1542 1526 1510 1511 1512 1507 1502 1500 1499 1499 1498 1496 1494 1492 1489 1486 1483 1480 1477 1475 1472 1468 1466 1464 1461 1458 1456 1455 1453 1451 1449 1447 1445 1444 1443 1443 1443 1443 1444 1444 1445 1446 1448
1525 1517 1507 1505 1503 1502 1501 1500 1498 1497 1496 1495 1493 1491 1489 1486 1484 1481 1478 1475 1472 1469 1466 1463 1461 1459 1456 1454 1453 1450 1448 1446 1444 1443 1441 1440 1440 1439 1439 1440 1440 1441 1442 1443
1518 1507 1503 1502 1501 1500 1499 1498 1496 1495 1493 1492 1490 1488 1486 1483 1481 1478 1476 1473 1470 1467 1463 1460 1459 1457 1454 1452 1450 1447 1445 1443 1441 1440 1438 1437 1436 1436 1436 1436 1436 1437 1438 1440
1512 1503 1500 1497 1497 1496 1496 1495 1494 1492 1490 1489 1487 1485 1483 1480 1478 1476 1473 1471 1468 1465 1461 1458 1456 1454 1452 1450 1448 1445 1443 1441 1439 1437 1436 1435 1433 1433 1432 1432 1433 1434 1434 1436
1502 1497 1497 1495 1494 1494 1492 1491 1490 1489 1487 1485 1484 1482 1480 1478 1475 1473 1471 1468 1465 1462 1459 1456 1454 1452 1450 1448 1445 1442 1440 1438 1436 1435 1434 1432 1431 1430 1430 1430 1430 1431 1432 1434
1494 1494 1494 1492 1491 1491 1489 1488 1487 1486 1484 1482 1481 1479 1477 1475 1473 1470 1468 1465 1463 1460 1457 1455 1452 1450 1447 1445 1443 1440 1438 1436 1434 1433 1431 1430 1429 1428 1427 1427 1428 1428 1429 1430
1492 1492 1491 1490 1489 1488 1487 1485 1484 1483 1481 1480 1478 1476 1474 1472 1470 1467 1465 1463 1460 1458 1455 1453 1450 1448 1446 1443 1441 1438 1436 1434 1432 1430 1429 1428 1428 1427 1426 1425 1425 1424 1426 1427
1489 1489 1489 1487 1486 1485 1484 1482 1481 1479 1478 1476 1475 1473 1471 1469 1467 1465 1462 1460 1458 1455 1453 1451 1448 1446 1444 1441 1439 1436 1434 1431 1430 1429 1428 1427 1426 1425 1425 1424 1424 1423 1423 1424
1486 1486 1485 1485 1483 1482 1481 1479 1478 1476 1474 1473 1471 1470 1468 1466 1464 1462 1460 1458 1455 1453 1451 1449 1446 1444 1442 1439 1437 1435 1432 1430 1429 1428 1426 1425 1425 1424 1423 1423 1422 1422 1422 1422
1483 1482 1482 1481 1480 1479 1478 1476 1475 1473 1472 1470 1468 1467 1465 1463 1461 1459 1457 1455 1453 1451 1449 1447 1444 1442 1440 1437 1435 1433 1431 1429 1428 1426 1425 1424 1423 1422 1422 1421 1421 1420 1420 1421
1481 1480 1480 1479 1477 1476 1475 1473 1472 1470 1469 1467 1466 1464 1462 1460 1458 1456 1454 1452 1450 1448 1447 1445 1442 1440 1438 1436 1434 1432 1430 1428 1426 1425 1424 1423 1422 1421 1420 1420 1419 1419 1419 1420
1478 1478 1477 1476 1475 1474 1472 1471 1469 1468 1466 1464 1462 1461 1459 1457 1455 1453 1452 1450 1447 1445 1444 1442 1440 1438 1436 1434 1432 1430 1428 1427 1425 1424 1423 1421 1420 1420 1419 1419 1418 1418 1417 1418
1475 1475 1474 1473 1472 1471 1470 1468 1466 1465 1463 1462 1460 1458 1456 1454 1452 1451 1449 1447 1446 1444 1442 1440 1438 1436 1434 1432 1430 1429 1427 1425 1424 1423 1421 1420 1419 1418 1418 1417 1417 1416 1416 1417
1473 1472 1471 1470 1469 1468 1467 1466 1464 1462 1461 1459 1457 1455 1454 1452 1450 1448 1446 1444 1443 1442 1440 1438 1436 1434 1432 1430 1429 1427 1426 1424 1423 1421 1420 1419 1418 1417 1417 1416 1416 1415 1415 1415
1471 1470 1469 1468 1467 1466 1464 1463 1462 1460 1458 1457 1455 1453 1451 1450 1448 1446 1445 1443 1441 1439 1437 1435 1434 1433 1431 1429 1427 1425 1424 1423 1421 1420 1419 1418 1417 1416 1415 1414 1414 1414 1414 1415
1469 1468 1467 1466 1464 1463 1462 1461 1459 1458 1456 1455 1453 1451 1450 1448 1446 1444 1442 1441 1439 1437 1435 1433 1432 1430 1428 1427 1425 1424 1422 1421 1420 1419 1418 1417 1415 1414 1414 1413 1413 1413 1413 1414
1466 1465 1464 1463 1462 1461 1459 1458 1457 1456 1454 1453 1451 1450 1448 1446 1444 1443 1441 1439 1438 1436 1434 1432 1430 1428 1426 1425 1423 1422 1421 1419 1418 1417 1416 1415 1414 1413 1413 1412 1412 1412 1412 1412
1464 1463 1462 1461 1460 1458 1457 1456 1454 1453 1452 1451 1449 1448 1447 1445 1443 1441 1440 1438 1436 1434 1432 1430 1429 1427 1425 1423 1422 1420 1419 1418 1417 1416 1415 1414 1413 1413 1412 1412 1411 1411 1411 1411
1462 1461 1460 1459 1458 1457 1455 1454 1452 1451 1450 1448 1447 1446 1444 1443 1441 1440 1438 1436 1434 1433 1431 1429 1427 1425 1424 1422 1421 1419 1418 1417 1416 1414 1414 1413 1412 1412 1411 1411 1410 1410 1410 1410
1459 1459 1458 1457 1456 1455 1453 1452 1451 1449 1448 1447 1445 1444 1442 1441 1439 1438 1436 1434 1433 1431 1429 1428 1426 1424 1423 1421 1420 1418 1417 1416 1414 1413 1412 1411 1411 1410 1410 1409 1409 1409 1409 1409